Regional Weather Roundup
Issued by NWS Midland/Odessa, TX

Skip options and go directly to product.
Home | Oldest Version | Next Version | Current Version | All | Text Only | Save Text | Print | Product List | Glossary On

Skip product version selection by date and time.   
798
ASUS44 KMAF 260401
RWRMAF
MIDLAND AREA WEATHER ROUNDUP
NATIONAL WEATHER SERVICE MIDLAND TX
1000 PM CST WED FEB 25 2015

...IN SOUTHWEST TEXAS AND SOUTHEAST NEW MEXICO...

CITY           SKY/WX    TMP DP  RH WIND       PRES   REMARKS
ALPINE         CLEAR     47  23  39 SW8       29.97R
ANDREWS        FAIR      47  24  39 E7        29.85R
ARTESIA        MOCLDY    50  30  46 NW6       29.86R
BIG SPRING     CLEAR     54  24  31 NE13      29.89R
CARLSBAD       MOCLDY    51  31  46 W10       29.83R
DRYDEN           N/A     54  27  35 W8        29.82S
FORT STOCKTON  CLEAR     51  30  44 W10       29.86R
GUAD PASS        N/A    N/A N/A N/A MISG        N/A
HOBBS          MOCLDY    50  21  32 E15G22    29.87S
MARFA          CLEAR     39  19  45 W6        29.95R WCI  35
MIDLAND AIRPK  CLEAR     51  33  49 CALM      29.83R
MIDLAND INTL   FAIR      42  34  73 CALM      29.83R
ODESSA         CLEAR     49  33  54 W3        29.83R
PECOS          CLEAR     51  31  46 SW12      29.84S
PRESIDIO       FAIR      56  24  29 N13       29.87F
SEMINOLE       PTCLDY    43  24  47 E3        29.87R
SNYDER         CLEAR     49  26  40 NE7       29.86S
WINK           CLEAR     48  33  56 W8        29.81R
$$
...OTHER STATIONS IN TEXAS...

CITY           SKY/WX    TMP DP  RH WIND       PRES   REMARKS
ABILENE        CLEAR     46  32  58 CALM      29.86R
AMARILLO       CLOUDY    43  34  70 N20       29.98R WCI  34
AUSTIN         PTCLDY    40  33  76 CALM      29.88R
BROWNSVILLE    CLEAR     48  45  89 SE5       29.92R
CORPUS CHRISTI PTCLDY    48  40  73 E8        29.88R
DALLAS FTW     CLEAR     37  33  85 SE6       29.89R WCI  32
DEL RIO        CLEAR     56  32  40 E7        29.83R
EL PASO        CLEAR     58  24  27 W13G29    29.89S
HOUSTON INT    CLEAR     39  35  86 N5        29.91F WCI  36
LUBBOCK        CLOUDY    49  34  56 NE18G29   29.88R
SAN ANGELO     CLEAR     45  33  63 S8        29.83R
SAN ANTONIO    PTCLDY    48  34  58 NW3       29.87R
WACO           CLEAR     36  33  89 SE5       29.89R WCI  32
WICHITA FALLS  NOT AVBL
$$
...OTHER LOCATIONS IN NEW MEXICO...

CITY           SKY/WX    TMP DP  RH WIND       PRES   REMARKS
ALAMAGORDO     PTCLDY    45  27  49 MISG      29.91R
ALBUQUERQUE    PTCLDY    44  17  33 NW10      29.98R WCI  39
CANNON AFB     CLOUDY    43  33  67 NE16      29.94R WCI  36
CLOVIS         CLOUDY    43  32  65 NE20      29.94R WCI  34
HOLLOMAN AFB   PTCLDY    46  28  48 W6        29.90R
ROSWELL        CLOUDY    55  25  31 NE14      29.86R
RUIDOSO        LGT RAIN  41  23  48 NW16G23   29.96R WCI  33
SANTA FE       PTCLDY    33  22  63 NE6       29.95R WCI  28
TRUTH OR CONSE CLEAR     48  27  44 NW9       29.96R
TUCUMCARI      LGT RAIN  40  35  83 NE14      29.97R WCI  32
$$

USA.gov is the U.S. government's official web portal to all federal, state and local government web resources and services.